Flag for Germany Weather past 2 weeks in Stralsund, Mecklenburg-Western Pomerania, Germany

Now
52 °F

Overcast.


Feels Like: 49 °F
Forecast: 46 / 61 °F
Wind: 7 mph from West

Location: Arkona

Current Time: May 23, 2015 at 7:10:43 AM

Latest Report: May 23, 2015 at 6:00 AM


Visibility: 11 mi

Pressure: 30.07 "Hg

Humidity: 88%

Dew point: 48 °F

Location of StralsundLocation

Historic Weather in Stralsund — Graph

°F

Stralsund temperature yesterday

Maximum temperature yesterday: 58 °F (at 7:00 PM)
Minimum temperature yesterday: 43 °F (at 4:00 AM)
Average temperature yesterday: 52 °F

Past Weeks' High & Low Weather Summary

 TemperatureHumidityPressure
High71 °F (May 12, 3:00 PM)99% (May 10, 12:00 PM)30.35 "Hg (May 10, 12:00 PM)
Low43 °F (May 22, 4:00 AM)60% (May 21, 4:00 PM)29.56 "Hg (May 19, 6:00 AM)
Average50 °F82%29.99 "Hg
* Reported May 8 6:00 AM — May 23 6:00 AM, Stralsund, Weather by CustomWeather, © 2015

Note: Actual official high and low records may vary slightly from our data, if they occured in-between our weather recording intervals... More about our weather records

Advertising

Stralsund weather history for previous 24 hours

 ConditionsComfort  
Time TempWeatherWind HumidityBarometerVisibility
6:00 AM
Sat, May 23
52 °FOvercast.7 mph88%30.07 "Hg11 mi
5:00 AM51 °FOvercast.6 mph88%30.07 "Hg9 mi
4:00 AM52 °FOvercast.7 mph87%30.08 "Hg7 mi
3:00 AM50 °FPassing clouds.7 mph95%30.09 "Hg5 mi
2:00 AM50 °FPassing clouds.8 mph96%30.09 "Hg6 mi
1:00 AM51 °FClear.7 mph95%30.10 "Hg6 mi
12:00 AM51 °FPassing clouds.8 mph93%30.12 "Hg8 mi
11:00 PM
Fri, May 22
52 °FClear.7 mph93%30.13 "Hg9 mi
10:00 PM53 °FClear.8 mph91%30.14 "Hg12 mi
9:00 PM54 °FSunny.6 mph82%30.14 "Hg16 mi
8:00 PM58 °FSunny.6 mph72%30.15 "Hg22 mi
7:00 PM58 °FSunny.6 mph66%30.16 "Hg19 mi
6:00 PM58 °FPassing clouds.8 mph65%30.18 "Hg15 mi
5:00 PM56 °FScattered clouds.10 mph65%30.21 "Hg22 mi
4:00 PM56 °FPassing clouds.8 mph64%30.22 "Hg22 mi
3:00 PM55 °FPassing clouds.8 mph67%30.23 "Hg22 mi
2:00 PM55 °FPassing clouds.10 mph66%30.24 "Hg19 mi
1:00 PM56 °FPassing clouds.8 mph71%30.25 "Hg19 mi
12:00 PM54 °FScattered clouds.8 mph72%30.26 "Hg19 mi
11:00 AM56 °FScattered clouds.7 mph71%30.27 "Hg19 mi
10:00 AM54 °FPassing clouds.6 mph71%30.27 "Hg22 mi
9:00 AM51 °FScattered clouds.6 mph80%30.27 "Hg22 mi
8:00 AM52 °FPartly sunny.3 mph88%30.27 "Hg19 mi
7:00 AM49 °FPassing clouds.3 mph90%30.26 "Hg19 mi
Weather by CustomWeather, © 2015

See weather overviewHow to use our weather pages